| time (UTC) | temp C | wind direction | speed KPH | gust KPH | rain 1hr cm | rain 24hr cm | rain mn cm | humidity % | barometer mb |
| 20260505101531 | 6 | 150 | 0.0 | 0.0 | 0.00 | 0.00 | 0.00 | 82 | 1011.2 |
| 20260505100039 | 6 | 150 | 0.0 | 0.0 | 0.00 | 0.00 | 0.00 | 82 | 1011.3 |
| 20260505094559 | 7 | 150 | 0.0 | 0.0 | 0.00 | 0.00 | 0.00 | 81 | 1011.1 |
| 20260505093103 | 7 | 150 | 0.0 | 0.0 | 0.00 | 0.00 | 0.00 | 81 | 1010.9 |
| 20260505091536 | 7 | 150 | 0.0 | 0.0 | 0.00 | 0.00 | 0.00 | 79 | 1010.6 |
| 20260505090036 | 8 | 150 | 0.0 | 0.0 | 0.00 | 0.00 | 0.00 | 77 | 1010.4 |
| 20260505084517 | 8 | 150 | 0.0 | 0.0 | 0.00 | 0.00 | 0.00 | 76 | 1010.3 |
| 20260505083014 | 9 | 150 | 0.0 | 0.0 | 0.00 | 0.00 | 0.00 | 75 | 1010.0 |
| 20260505081609 | 10 | 150 | 0.0 | 0.0 | 0.00 | 0.00 | 0.00 | 74 | 1009.8 |
| 20260505080100 | 11 | 150 | 0.0 | 0.0 | 0.00 | 0.00 | 0.00 | 73 | 1009.5 |
| 20260505074536 | 11 | 150 | 0.0 | 0.0 | 0.00 | 0.00 | 0.00 | 71 | 1009.2 |
| 20260505073038 | 12 | 151 | 0.0 | 0.0 | 0.00 | 0.00 | 0.00 | 71 | 1008.8 |
| 20260505071533 | 13 | 150 | 0.0 | 0.0 | 0.00 | 0.00 | 0.00 | 69 | 1008.4 |
| 20260505070032 | 13 | 151 | 0.0 | 0.0 | 0.00 | 0.00 | 0.00 | 68 | 1008.2 |
| 20260505064531 | 13 | 151 | 0.0 | 0.0 | 0.00 | 0.00 | 0.00 | 68 | 1008.0 |
| 20260505063035 | 14 | 151 | 0.0 | 1.6 | 0.00 | 0.00 | 0.00 | 67 | 1007.8 |
| 20260505061537 | 15 | 142 | 0.0 | 0.0 | 0.00 | 0.00 | 0.00 | 66 | 1007.7 |
| 20260505060031 | 15 | 142 | 0.0 | 0.0 | 0.00 | 0.00 | 0.00 | 64 | 1007.4 |
| 20260505054513 | 15 | 142 | 0.0 | 0.0 | 0.00 | 0.00 | 0.00 | 62 | 1007.2 |
| 20260505053027 | 16 | 156 | 0.0 | 0.0 | 0.00 | 0.00 | 0.00 | 61 | 1007.1 |
| 20260505051554 | 16 | 155 | 0.0 | 0.0 | 0.00 | 0.00 | 0.00 | 60 | 1006.9 |
| 20260505041520 | 17 | 132 | 0.0 | 0.0 | 0.00 | 0.00 | 0.00 | 56 | 1006.4 |
| 20260505040015 | 17 | 153 | 0.0 | 0.0 | 0.00 | 0.00 | 0.00 | 55 | 1006.4 |
| 20260505034557 | 17 | 163 | 1.6 | 17.7 | 0.00 | 0.00 | 0.00 | 54 | 1006.3 |
| 20260505033054 | 17 | 146 | 0.0 | 0.0 | 0.00 | 0.00 | 0.00 | 57 | 1006.4 |
| 20260505031544 | 17 | 158 | 0.0 | 12.9 | 0.00 | 0.00 | 0.00 | 57 | 1006.5 |
| 20260505030038 | 17 | 160 | 0.0 | 9.7 | 0.00 | 0.00 | 0.00 | 58 | 1006.6 |
| 20260505024537 | 17 | 178 | 0.0 | 19.3 | 0.00 | 0.00 | 0.00 | 55 | 1006.5 |
| 20260505023036 | 17 | 156 | 0.0 | 9.7 | 0.00 | 0.00 | 0.00 | 57 | 1006.7 |
| 20260505021535 | 17 | 171 | 0.0 | 11.3 | 0.00 | 0.00 | 0.00 | 57 | 1007.0 |
| 20260505020036 | 17 | 182 | 0.0 | 12.9 | 0.00 | 0.03 | 0.00 | 58 | 1007.3 |
| 20260505014524 | 17 | 128 | 0.0 | 0.0 | 0.00 | 0.03 | 0.00 | 60 | 1007.5 |
| 20260505013027 | 16 | 138 | 0.0 | 11.3 | 0.00 | 0.03 | 0.00 | 58 | 1007.6 |
| 20260505011525 | 16 | 191 | 0.0 | 8.0 | 0.00 | 0.03 | 0.00 | 61 | 1007.7 |
| 20260505010117 | 15 | 188 | 3.2 | 14.5 | 0.00 | 0.03 | 0.00 | 63 | 1007.7 |
| 20260505004553 | 15 | 162 | 0.0 | 14.5 | 0.00 | 0.05 | 0.00 | 65 | 1007.8 |
| 20260505003032 | 15 | 140 | 0.0 | 3.2 | 0.00 | 0.05 | 0.00 | 70 | 1007.7 |
| 20260505001525 | 14 | 160 | 0.0 | 11.3 | 0.00 | 0.05 | 0.00 | 73 | 1007.8 |
| 20260505000004 | 13 | 151 | 0.0 | 0.0 | 0.00 | 0.15 | 0.00 | 82 | 1007.6 |
| 20260504234601 | 12 | 124 | 0.0 | 12.9 | 0.00 | 0.15 | 0.00 | 88 | 1007.8 |
| 20260504233037 | 11 | 158 | 0.0 | 12.9 | 0.00 | 0.15 | 0.00 | 94 | 1007.6 |
| 20260504231532 | 10 | 142 | 0.0 | 0.0 | 0.00 | 0.15 | 0.00 | 96 | 1007.6 |
| 20260504230012 | 9 | 153 | 0.0 | 0.0 | 0.00 | 0.15 | 0.00 | 96 | 1008.1 |
| 20260504224504 | 7 | 154 | 0.0 | 0.0 | 0.00 | 0.15 | 0.00 | 96 | 1008.4 |
| 20260504223057 | 6 | 154 | 0.0 | 0.0 | 0.00 | 0.15 | 0.00 | 96 | 1008.7 |
| 20260504221554 | 3 | 154 | 0.0 | 0.0 | 0.00 | 0.15 | 0.00 | 95 | 1008.3 |
| 20260504220017 | 2 | 154 | 0.0 | 0.0 | 0.00 | 0.15 | 0.00 | 94 | 1007.9 |
| 20260504214513 | 2 | 154 | 0.0 | 0.0 | 0.00 | 0.15 | 0.00 | 92 | 1007.5 |
| 20260504213104 | -17 | 0.0 | 0.0 | 0.00 | 0.15 | 0.00 | 1007.3 | ||
| 20260504211550 | -17 | 0.0 | 0.0 | 0.00 | 0.15 | 0.00 | 1007.2 | ||
| 20260504210026 | -17 | 0.0 | 0.0 | 0.00 | 0.15 | 0.00 | 1006.6 | ||
| 20260504204527 | -17 | 0.0 | 0.0 | 0.00 | 0.15 | 0.00 | 1006.4 | ||
| 20260504203100 | -17 | 0.0 | 0.0 | 0.00 | 0.15 | 0.00 | 1006.1 | ||
| 20260504201555 | -17 | 0.0 | 0.0 | 0.00 | 0.15 | 0.00 | 1005.8 | ||
| 20260504200034 | -17 | 0.0 | 0.0 | 0.00 | 0.15 | 0.00 | 1005.4 | ||
| 20260504194538 | -17 | 0.0 | 0.0 | 0.00 | 0.15 | 0.00 | 1005.4 | ||
| 20260504193007 | -17 | 0.0 | 0.0 | 0.00 | 0.15 | 0.00 | 1005.1 | ||
| 20260504191503 | -17 | 0.0 | 0.0 | 0.00 | 0.15 | 0.00 | 1005.3 | ||
| 20260504190043 | -17 | 0.0 | 0.0 | 0.00 | 0.15 | 0.00 | 1005.3 | ||
| 20260504184542 | 2 | 154 | 0.0 | 0.0 | 0.00 | 0.15 | 0.00 | 91 | 1005.2 |
| 20260504183020 | 2 | 154 | 0.0 | 0.0 | 0.00 | 0.15 | 0.00 | 91 | 1004.9 |
| 20260504181521 | 2 | 154 | 0.0 | 0.0 | 0.00 | 0.15 | 0.00 | 91 | 1004.9 |
| 20260504180103 | 3 | 154 | 0.0 | 0.0 | 0.00 | 0.15 | 0.00 | 91 | 1004.8 |
| 20260504174558 | 3 | 154 | 0.0 | 0.0 | 0.00 | 0.15 | 0.00 | 91 | 1004.7 |
| 20260504173037 | 3 | 154 | 0.0 | 0.0 | 0.00 | 0.15 | 0.00 | 91 | 1004.8 |
| 20260504171537 | 3 | 154 | 0.0 | 0.0 | 0.00 | 0.15 | 0.00 | 90 | 1004.7 |